Regional Weather Roundup
Issued by NWS Wakefield, VA

Home | Current Version | Previous Version | Graphics & Text | Print | Product List | Glossary On
Versions: 1 2 3 4 5 6 7 8 9 10 11 12 13 14 15 16 17 18 19 20 21 22 23 24 25 26 27 28 29 30 31 32 33 34 35 36 37 38 39 40 41 42 43 44 45 46 47 48 49 50
572
ASUS41 KAKQ 222215
RWRAKQ

REGIONAL WEATHER ROUNDUP
NATIONAL WEATHER SERVICE WAKEFIELD VA
500 PM EST WED NOV 22 2017

Note: "fair" indicates few or no clouds below 12,000 feet with no
significant weather and/or obstructions to visibility. * = Denotes
station may not report precipitation (e.g., rain,snow,etc.),
thunder or fog.

VAZ042-051-052>054-056-222300-
NORTHERN VIRGINIA

CITY           SKY/WX    TMP DP  RH WIND       PRES   REMARKS
WASH NATIONAL  PTCLDY    48  28  46 NW17G30   30.11R
DULLES         MOCLDY    44  26  49 NW15      30.12R
FORT BELVOIR   CLOUDY    47  27  45 NW14G24   30.11R
QUANTICO       PTCLDY    48  28  46 NW15      30.12
FREDERICKSBRG* CLEAR     48  30  49 NW8       30.11R
STAFFORD*      CLEAR     44  27  51 NW9       30.15R
WARRENTON      NOT AVBL
CULPEPER*      CLEAR     46  24  41 N12       30.13R
MANASSAS*      MOCLDY    45  27  49 NW17G23   30.12R
LEESBURG*      PTCLDY    43  30  61 NW9G21    30.13R
WINCHESTER     PTCLDY    37  25  60 NW16      30.13R
FRONT ROYAL*   CLEAR     41  27  56 N6        30.13R
LURAY*         CLEAR     41  27  56 NW8       30.13R
$$

VAZ048-049-060>072-079>083-222300-
CENTRAL AND SOUTH CENTRAL VIRGINIA

CITY           SKY/WX    TMP DP  RH WIND       PRES   REMARKS
RICHMOND       PTCLDY    53  31  42 N16G24    30.05R
CHESTERFIELD*  NOT AVBL
PETERSBURG*    CLEAR     55 -38   1 N5        30.03R
HANOVER        CLEAR     51  29  42 N7        30.08R
TAPPAHANNOCK*    N/A    N/A N/A N/A MISG        N/A
QUINTON*       FAIR      53  33  45 N9        30.04R
CHARLOTTSVILLE CLEAR     46  24  42 N7        30.11R
GORDONSVILLE*  CLEAR     46  24  42 N8        30.10R
ORANGE*        CLEAR     45  25  45 NW8       30.11R
LOUISA*        CLEAR     47  23  39 N13G21    30.13R
BUMPASS*       FAIR      48  24  39 NW9G17    30.08R
FARMVILLE*     CLEAR     54  28  36 N7        30.05R
CREWE*         FAIR      55  28  34 N3        30.04R
FORT PICKETT*  NOT AVBL
CHASE CITY*    FAIR      55  29  36 NW5       30.04R
CLARKSVILLE*   FAIR      55  32  41 N3        30.03R
SOUTH HILL*    CLEAR     54  34  46 CALM      30.07S
LAWRENCEVILLE* FAIR      55  32  41 N3        30.01S
EMPORIA*       PTCLDY    54  32  43 W5        30.03S
$$

VAZ088>098-222300-
SOUTHEAST VIRGINIA

CITY           SKY/WX    TMP DP  RH WIND       PRES   REMARKS
NORFOLK        CLOUDY    55  39  54 N15G22    30.00R
VIRGINIA BEACH MOCLDY    54  37  52 N14       30.00R
NORFOLK NAVAL  CLOUDY    55  38  52 N16       30.03R
WEST POINT*    CLEAR     52  31  44 N12G17    30.06R
SALUDA*        FAIR      50  33  50 N17G23    30.03R
NEWPORT NEWS   CLOUDY    54  35  48 N10       30.02R
LANGLEY AFB    PTCLDY    54  38  56 N16G24    30.01R
FORT EUSTIS    PTCLDY    55  36  48 N8        29.99R
WILLIAMSBURG*  CLEAR     54  37  54 N5        30.03R
HR EXEC AP*    NOT AVBL
FRANKLIN*      CLEAR     55  36  48 N5        30.01R
US460-WAKEFLD  CLEAR     55  37  50 N5        30.01R
$$

VAZ020-022-025-037-045-222300-
WEST CENTRAL AND SOUTHWEST VIRGINIA

CITY           SKY/WX    TMP DP  RH WIND       PRES   REMARKS
STAUNTON*      CLEAR     40  23  49 NW8       30.13S
WAYNESBORO*    PTCLDY    41  22  47 N7        30.10R
HOT SPRINGS VA CLEAR     32  19  59 NW13G20   30.05S WCI  22
LYNCHBURG      CLEAR     50  24  36 NW9       30.07R
DANVILLE       CLEAR     53  28  38 N10       30.06R
SOUTH BOSTON*  FAIR      54  26  33 NW8       30.05R
MARTINSVILLE   CLEAR     50  24  35 N8        30.10R
ROANOKE        CLEAR     45  24  43 NW13      30.14R
BLACKSBURG     CLEAR     41  24  52 NW6       30.14S
DUBLIN*        CLEAR     42  28  57 N7        30.12R
MARION*        CLEAR     43  17  36 NW7       30.14R
HILLSVILLE*    CLEAR     42  23  45 N14       30.07R
RICHLANDS*     FAIR      38   0  20 N5        30.14R
WISE*          CLEAR     37  28  70 N8        30.15S
ABINGDON*      CLEAR     46  26  47 N5        30.13R
$$

MDZ021>025-VAZ099-100-222300-
SOUTHERN MARYLAND AND THE DELMARVA PENINSULA

CITY           SKY/WX    TMP DP  RH WIND       PRES   REMARKS
PATUXENT RIVER PTCLDY    49  31  49 NW21      30.06R
BAY BRIDGE APT PTCLDY    48  30  49 NW13G20   30.07R
LEONARDTOWN    PTCLDY    46  30  53 NW8       30.08R
DOVER          CLOUDY    48  33  55 NW20G25   30.03R
GEORGETOWN     CLEAR     51  30  44 NW9G18    30.02R
EASTON         PTCLDY    48  30  49 NW13G18   30.10R
CAMBRIDGE      CLEAR     48  30  49 NW13      30.05R
SALISBURY      CLEAR     49  32  52 NW14      30.02R
OCEAN CITY     CLEAR     50  33  52 NW18G26   30.00R
WALLOPS ISLAND CLEAR     50  33  52 NW17G29   30.02R
ACCOMACK*      CLEAR     51  35  54 NW14G28   30.02R
$$

NCZ012>017-030>032-222300-
NORTH CENTRAL AND EASTERN NORTH CAROLINA

CITY           SKY/WX    TMP DP  RH WIND       PRES   REMARKS
ROANOKE RAPIDS FAIR      57  36  44 N6        30.01R
RALEIGH        MOCLDY    57  28  33 VRB3      30.04R
ELIZABETH CITY PTCLDY    58  47  66 N10       29.99R
AHOSKIE*       CLEAR     57  37  47 CALM      30.01R
EDENTON*       PTCLDY    60  49  68 CALM      30.00R
CURRITUCK*     PTCLDY    56  44  61 N7        30.00R
KILL DEVIL HLS PTCLDY    56  42  58 N5G17     29.97R
MANTEO         PTCLDY    56  44  62 NE15G21   29.99R
CAPE HATTERAS  CLEAR     58  49  72 NE13G22   29.97R
TARBORO*       NOT AVBL
GOLDSBORO      CLEAR     60  36  40 NW9       29.99R
WASHINGTON     CLEAR     60  45  58 NW5       29.99R
GREENVILLE     PTCLDY    61  41  48 N3        30.01R
NEW BERN       CLEAR     59  46  62 N7        30.00R
WILMINGTON     CLEAR     65  46  50 N7        29.98R
$$

VAZ048-222300-
ELSEWHERE

CITY           SKY/WX    TMP DP  RH WIND       PRES   REMARKS
HARRISBURG PA  MOCLDY    43  25  49 NW18G25   30.09R
BALTIMORE      MOCLDY    46  27  47 NW15G21   30.08R
ANNAPOLIS      PTCLDY    50  32  50 NW12G25   30.08R
ANDREWS AFB    MOCLDY    47  27  46 NW21      30.07R
PHILADELPHIA   MOCLDY    47  29  49 N15       30.03R
HENDERSON NC   CLEAR     55  29  37 CALM      30.02S
GREENSBORO     MOCLDY    55  28  35 NE9       30.04R
ROCKY MOUNT    CLEAR     57  38  48 N6        30.02R
$$

VAZ100-222300-
MARINE

STATION/POSITION TIME  TEMP    WIND        PRES    WAVE   SWELL
                       AIR SEA DIR/SP/G            HT/PER HT/PER
                 (UTC) (F)     (DEG/KT/KT) (MB)    (FT/S) (FT/S)
BRANDYWINE LGT   2136   51     350/ 29/ 32 1015.6R
CAPE MAY NJ      2142   50 51  330/ 22/ 30 1014.9R
LEWES DE         2136   52 53  310/ 22/ 25 1015.4R
15NM E FENWICK I 2150   54 58  310/ 25/ 31 1014.5R   5/ 5
OCEAN-CITY-INLET 2148   52 54  340/ 16/ 21 1015.9R
WACHAPREAGUE VA  2142   51 54  310/  7/ 12 1016.5R
THOMAS POINT MD  2200   48 53  320/ 17/ 19   N/A
GOOSES REEF MD   2150   50     360/ 19/ 23 1013.6F
COVE POINT MD    2142   50     340/ 23/ 28 1018.4R
SOLOMONS ISLAND  2148   49 54  330/ 15/ 18 1017.6R
BISHOPS HEAD MD  2136   50 52  320/ 12/ 15 1017.7R
PINEY POINT MD   2124          360/ 22/ 25   N/A
POTOMAC MD       2150   51     360/ 14/ 17 1017.0R
CAMBRIDGE MD     2148   49 51              1018.5R
LEWISETTA VA     2148      52                N/A
RAPPAHANNOCK LGT 2142          320/ 24/ 27 1017.0R
STINGRAY PT      2150   53      10/ 17/ 21 1017.1R
YORK RVR RNG VA  2142   54     360/ 23/ 26 1016.5R
YORKTOWN VA      2136      55  350/ 15/ 17 1016.2R
JAMESTOWN VA     2150           20/ 12/ 17   N/A
DOMINION TERM VA 2136   57      40/  2/  5 1016.0R
KIPTOPEKE VA     2142      54   10/ 11/ 18   N/A
CAPE HENRY VA    2142   55     350/ 26/ 28   N/A
WILLOUBY STN VA  2136   55     360/ 18/ 21 1015.9R
S CRANEY ISL VA  2148   56      10/ 17/ 20 1015.5R
CAPE HENRY BUOY  2130      58                N/A     4/ 4
1ST LANDING BUOY 2150   55      20/ 21/ 27 1016.5R
CAPE CHARLES BUO 2151      59                N/A     4/ 8
64NM E OF VA BCH 2150   59 62  330/ 23/ 29 1014.7R   8/ 6   3/ 9
DUCK PIER NC     2142   59 60   10/ 20/ 23 1014.5R
44100 DUCK FRF   2145      61                N/A     7/ 5
44056 DUCK FRF   2130      61                N/A     6/ 5
OREGON INLET NC  2136   58 57  350/ 11/ 18 1014.9R
HATTERAS NC      2142   58 60   20/ 17/ 23 1014.5R
DIAMOND SHLS NC  2150   62 74   10/ 23/ 31 1014.6R   7/ 9   5/ 9
CAPE LOOKOUT NC  2200           10/  8/  9 1015.2R
$$




USA.gov is the U.S. government's official web portal to all federal, state and local government web resources and services.